Regional Weather Roundup
Issued by NWS Portland, ME

Home | Current Version | Previous Version | Text Only | Print | Product List | Glossary On
Versions: 1 2 3 4 5 6 7 8 9 10 11 12 13 14 15 16 17 18 19 20 21 22 23 24 25 26 27 28 29 30 31 32 33 34 35 36 37 38 39 40 41 42 43 44 45 46 47 48 49 50
000
ASUS41 KGYX 292110
RWRGYX
WEATHER ROUNDUP FOR MAINE AND NEW HAMPSHIRE
NATIONAL WEATHER SERVICE GRAY ME
500 PM EDT WED MAR 29 2017

MEZ002-005-006-010-012-015-018-020-021-024-026-027-029-292200-
MAINE

CITY           SKY/WX    TMP DP  RH WIND       PRES   REMARKS
PORTLAND       CLOUDY    41  24  51 NW17G25   30.02S
SANFORD        CLOUDY    40  25  55 N15       30.04R
BAR HARBOR     CLOUDY    39  31  72 N10       29.96S
WISCASSET      CLOUDY    39  34  82 VRB5      30.02R
ROCKLAND       CLOUDY    43  26  51 NW5       29.97S
FRYEBURG       CLOUDY    40  21  46 N9G18     30.04S
LEWISTONAUBURN CLOUDY    41  23  48 N18       30.01S
AUGUSTA        MIX PCPN  35  31  85 NW8       30.01R
WATERVILLE     LGT RAIN  36  33  89 NW10      29.98R
BANGOR         PTSUNNY   39  30  70 N9        29.98S
GREENVILLE       N/A     31  30  96 NW16G22   29.94S WCI  20
MILLINOCKET    CLOUDY    38  29  70 N16G24    29.99S
HOULTON        CLOUDY    33  27  78 N14G20    29.97S
PRESQUE ISLE   FLURRIES  33  28  81 N9        30.01S
FRENCHVILLE    LGT SNOW  31  27  85 N9        29.99S FOG
CARIBOU        CLOUDY    33  26  75 N10       29.99S
$$

NHZ002-005-008-009-011-012-014-292200-
NEW HAMPSHIRE

CITY           SKY/WX    TMP DP  RH WIND       PRES   REMARKS
PORTSMOUTH     PTSUNNY   41  24  51 NW18      30.03R
ROCHESTER      CLOUDY    40  23  50 NW21G29   30.02S
NASHUA         CLOUDY    42  24  49 NW15G24   30.08R
MANCHESTER     PTSUNNY   43  22  43 NW16G26   30.06R
CONCORD        CLOUDY    41  25  53 N17G24    30.07R
LACONIA        MOSUNNY   39  23  52 W14G21    30.07R
PLYMOUTH       CLOUDY    39  25  56 W16G23    30.07S
BERLIN         CLOUDY    36  24  62 NW10      30.04R
WHITEFIELD     CLOUDY    35  25  66 W12       30.07R
JAFFREY        CLOUDY    38  22  52 NW9G18    30.07R
KEENE          CLOUDY    40  25  55 N9        30.10R
LEBANON        CLOUDY    40  24  53 N10G20    30.09F
MT WASHINGTON  SNOWSHWR  12  12 100 NW56G75     N/A  VSB 0   WCI -15
$$

VTZ005-007-008-292200-
VERMONT

CITY           SKY/WX    TMP DP  RH WIND       PRES   REMARKS
ST JOHNSBURY     N/A     37  27  67 MISG      30.09R
MONTPELIER     CLOUDY    34  25  69 NW12G21   30.15R
BURLINGTON     CLOUDY    40  25  55 N13       30.17R
$$

MAZ007-012-024-CTZ003-RIZ002-NYZ038-NYZ072-292200-
SOUTHERN NEW ENGLAND AND NY

CITY           SKY/WX    TMP DP  RH WIND       PRES   REMARKS
BOSTON         CLOUDY    44  26  49 NW21G33   30.05R
WORCESTER      CLOUDY    40  23  50 NW16G28   30.05R
NANTUCKET      CLOUDY    43  34  70 N15       30.00R
PROVIDENCE     MOSUNNY   50  28  42 N12G22    30.03R
HARTFORD       PTSUNNY   48  27  44 N15G30    30.07R
ALBANY         MOSUNNY   49  23  36 NW17G25   30.13R
NEW YORK CITY  SUNNY     58  28  32 NW9G21    30.04R
$$

ANZ081-ANZ082-ANZ150-NHZ014-MEZ023>029-292200-
COASTAL MARINE OBSERVATIONS

STATION/POSITION TIME  TEMP    WIND        PRES    WAVE
                       AIR SEA DIR/SP/G            HT/PER
                 (UTC) (F)     (DEG/KT/KT) (MB)    (FT/S)
MOUNT DESERT ROC 2100   37                 1014.1F
MATINICUS ROCK   2000   39     360/ 15/ 17 1014.2F
ISLE OF SHOALS   2000   43     310/ 19/ 20 1015.9S
JEFFREYS LEDGE   2006      40                N/A     4/ 8
CASHES LEDGE BUO 2050   39 40              1015.4R   4/ 5
GEORGES BANK BUO 2050   38 40              1009.5R   9/ 7
$$

.............KEY..............
   WCI - WIND CHILL
   TC  - TEMPERATURE IN CELSIUS
   VSB - VISIBILITY IN MILES
   HX  - HEAT INDEX
   FAIR- INDICATES FEW OR NO CLOUDS BELOW 12,000 FT, WITH NO
         SIGNIFICANT WEATHER AND/OR OBSTRUCTIONS TO VISIBILITY.






USA.gov is the U.S. government's official web portal to all federal, state and local government web resources and services.